�������l�o���
Date,Time,MP-1(��Sv/h),MP-2(��Sv/h),MP-3(��Sv/h),MP-4(��Sv/h),MP-5(��Sv/h),MP-6(��Sv/h),MP-7(��Sv/h),MP-8(��Sv/h),����,����(m/s),���J
2017/04/16,00:00,1.037,1.667,1.131,1.991,1.373,0.549,1.003,0.929,���쓌,3.2,��
2017/04/16,00:10,1.034,1.665,1.132,1.993,1.374,0.549,1.003,0.928,�쓌,2.2,��
2017/04/16,00:20,1.036,1.666,1.129,1.992,1.376,0.550,1.004,0.930,�쓌,1.7,��
2017/04/16,00:30,1.035,1.661,1.128,1.992,1.371,0.548,1.004,0.930,��,2.0,��
2017/04/16,00:40,1.034,1.667,1.132,1.993,1.372,0.550,1.004,0.929,�쐼,3.1,��
2017/04/16,00:50,1.035,1.661,1.131,1.992,1.370,0.549,1.001,0.929,�쐼,4.3,��
2017/04/16,01:00,1.033,1.664,1.129,1.991,1.373,0.549,1.003,0.928,���쐼,5.3,��
2017/04/16,01:10,1.035,1.666,1.131,1.993,1.372,0.550,1.003,0.928,���쐼,5.6,��
2017/04/16,01:20,1.032,1.664,1.130,1.990,1.371,0.549,1.002,0.928,���쐼,6.4,��
2017/04/16,01:30,1.034,1.667,1.130,1.993,1.373,0.550,1.003,0.928,���쐼,5.6,��
2017/04/16,01:40,1.034,1.664,1.129,1.992,1.372,0.549,1.004,0.929,��,4.3,��
2017/04/16,01:50,1.033,1.664,1.131,1.995,1.373,0.550,1.003,0.927,���쐼,3.8,��
2017/04/16,02:00,1.035,1.666,1.129,1.994,1.373,0.549,1.001,0.929,���쐼,3.6,��
2017/04/16,02:10,1.034,1.665,1.130,1.992,1.373,0.548,1.006,0.929,�쐼,5.9,��
2017/04/16,02:20,1.036,1.667,1.131,1.995,1.372,0.548,1.003,0.929,�쐼,6.7,��
2017/04/16,02:30,1.034,1.665,1.131,1.993,1.373,0.548,1.004,0.928,�쐼,6.1,��
2017/04/16,02:40,1.034,1.661,1.131,1.997,1.373,0.550,1.005,0.928,��쐼,5.9,��
2017/04/16,02:50,1.035,1.665,1.132,1.995,1.374,0.550,1.003,0.927,�쐼,5.9,��
2017/04/16,03:00,1.032,1.665,1.132,1.990,1.371,0.549,1.002,0.926,�쐼,5.7,��
2017/04/16,03:10,1.034,1.665,1.133,1.990,1.370,0.550,1.003,0.931,�쐼,6.4,��
2017/04/16,03:20,1.034,1.663,1.131,1.992,1.372,0.548,1.001,0.927,�쐼,5.7,��
2017/04/16,03:30,1.034,1.664,1.130,1.995,1.372,0.550,1.003,0.928,�쐼,5.3,��
2017/04/16,03:40,1.032,1.664,1.132,1.994,1.372,0.550,1.004,0.926,�쐼,5.1,��
2017/04/16,03:50,1.033,1.662,1.130,1.990,1.373,0.549,1.005,0.928,�쐼,4.1,��
2017/04/16,04:00,1.032,1.662,1.131,1.990,1.371,0.549,1.003,0.929,��쐼,2.8,��
2017/04/16,04:10,1.033,1.661,1.130,1.991,1.370,0.549,1.003,0.926,��쐼,2.6,��
2017/04/16,04:20,1.034,1.665,1.129,1.990,1.373,0.551,1.003,0.928,��,3.9,��
2017/04/16,04:30,1.033,1.663,1.129,1.993,1.373,0.549,1.000,0.926,��쐼,4.8,��
2017/04/16,04:40,1.034,1.662,1.128,1.993,1.373,0.551,1.001,0.928,��쐼,4.5,��
2017/04/16,04:50,1.033,1.664,1.131,1.992,1.372,0.549,1.000,0.927,��쐼,4.2,��
2017/04/16,05:00,1.034,1.664,1.130,1.991,1.374,0.550,1.003,0.928,��쐼,3.9,��
2017/04/16,05:10,1.034,1.663,1.129,1.992,1.372,0.548,1.002,0.927,��쐼,3.3,��
2017/04/16,05:20,1.035,1.666,1.132,1.993,1.372,0.551,1.005,0.930,��쐼,3.2,��
2017/04/16,05:30,1.035,1.666,1.128,1.991,1.372,0.548,1.002,0.928,��,4.5,��
2017/04/16,05:40,1.034,1.663,1.131,1.990,1.371,0.551,1.001,0.930,��쐼,3.2,��
2017/04/16,05:50,1.035,1.661,1.131,1.992,1.371,0.550,1.003,0.926,��,2.3,��
2017/04/16,06:00,1.035,1.665,1.130,1.992,1.373,0.549,1.003,0.929,��쓌,2.9,��
2017/04/16,06:10,1.037,1.667,1.131,1.993,1.372,0.550,1.004,0.929,��,3.1,��
2017/04/16,06:20,1.034,1.666,1.131,1.993,1.372,0.550,1.002,0.927,��쓌,4.5,��
2017/04/16,06:30,1.033,1.666,1.131,1.994,1.373,0.549,1.005,0.928,��쓌,3.2,��
2017/04/16,06:40,1.036,1.669,1.133,1.995,1.372,0.550,1.006,0.929,��쓌,4.3,��
2017/04/16,06:50,1.036,1.670,1.132,1.993,1.372,0.551,1.005,0.929,��,4.4,��
2017/04/16,07:00,1.036,1.668,1.134,1.993,1.373,0.551,1.006,0.926,��,4.6,��
2017/04/16,07:10,1.037,1.668,1.134,1.995,1.376,0.550,1.005,0.929,��,3.6,��
2017/04/16,07:20,1.036,1.663,1.134,1.996,1.373,0.550,1.007,0.931,��,3.2,��
2017/04/16,07:30,1.038,1.665,1.134,1.999,1.374,0.549,1.006,0.929,�쐼,2.8,��
2017/04/16,07:40,1.035,1.665,1.134,1.994,1.374,0.547,1.008,0.929,�쐼,5.3,��
2017/04/16,07:50,1.037,1.666,1.134,2.000,1.374,0.550,1.007,0.930,���쐼,5.2,��
2017/04/16,08:00,1.041,1.668,1.133,1.997,1.375,0.549,1.006,0.930,���쐼,8.2,��
2017/04/16,08:10,1.037,1.669,1.135,1.997,1.374,0.549,1.007,0.932,���쐼,9.6,��
2017/04/16,08:20,1.037,1.668,1.137,2.000,1.375,0.549,1.006,0.930,���쐼,9.1,��
2017/04/16,08:30,1.039,1.668,1.136,2.000,1.373,0.550,1.005,0.930,���쐼,8.3,��
2017/04/16,08:40,1.037,1.668,1.135,2.004,1.377,0.550,1.005,0.929,���쐼,9.5,��
2017/04/16,08:50,1.039,1.669,1.136,2.004,1.380,0.552,1.006,0.929,���쐼,8.9,��
2017/04/16,09:00,1.042,1.669,1.134,2.002,1.380,0.551,1.007,0.928,���쐼,8.5,��
2017/04/16,09:10,1.041,1.669,1.136,2.003,1.380,0.550,1.006,0.930,���쐼,7.1,��
2017/04/16,09:20,1.041,1.671,1.137,2.004,1.378,0.553,1.006,0.930,�쐼,8.3,��
2017/04/16,09:30,1.041,1.671,1.136,2.005,1.383,0.553,1.007,0.928,���쐼,7.2,��
2017/04/16,09:40,1.043,1.671,1.139,2.005,1.383,0.552,1.008,0.928,�쐼,7.0,��
2017/04/16,09:50,1.043,1.672,1.137,2.005,1.380,0.555,1.007,0.928,���쐼,4.5,��
2017/04/16,10:00,1.045,1.675,1.138,2.004,1.381,0.554,1.007,0.929,�쐼,4.9,��
2017/04/16,10:10,1.043,1.675,1.139,2.004,1.383,0.553,1.006,0.929,��쐼,6.0,��
2017/04/16,10:20,1.045,1.675,1.138,2.004,1.380,0.554,1.007,0.931,�쐼,4.6,��
2017/04/16,10:30,1.045,1.674,1.140,2.007,1.381,0.554,1.010,0.928,�쐼,7.1,��
2017/04/16,10:40,1.046,1.672,1.139,2.010,1.381,0.552,1.010,0.930,�쐼,7.0,��
2017/04/16,10:50,1.045,1.678,1.140,2.004,1.384,0.554,1.009,0.930,���쐼,4.8,��
2017/04/16,11:00,1.047,1.678,1.139,2.007,1.383,0.554,1.008,0.929,�쐼,5.3,��
2017/04/16,11:10,1.045,1.677,1.140,2.009,1.384,0.555,1.010,0.931,���쐼,5.7,��
2017/04/16,11:20,1.045,1.676,1.142,2.010,1.388,0.553,1.010,0.930,���쐼,4.2,��
2017/04/16,11:30,1.045,1.676,1.143,2.011,1.384,0.555,1.009,0.931,�쐼,3.0,��
2017/04/16,11:40,1.045,1.678,1.142,2.007,1.388,0.555,1.009,0.930,��,5.6,��
2017/04/16,11:50,1.047,1.678,1.141,2.011,1.389,0.554,1.007,0.929,���k��,8.1,��
2017/04/16,12:00,1.045,1.675,1.143,2.009,1.385,0.554,1.010,0.930,��,6.1,��
2017/04/16,12:10,1.045,1.678,1.143,2.009,1.386,0.555,1.007,0.930,��,3.7,��
2017/04/16,12:20,1.045,1.677,1.142,2.009,1.390,0.555,1.010,0.931,���쐼,1.2,��
2017/04/16,12:30,1.046,1.681,1.144,2.012,1.390,0.555,1.010,0.930,���쐼,2.8,��
2017/04/16,12:40,1.044,1.677,1.142,2.013,1.390,0.555,1.011,0.933,��,8.8,��
2017/04/16,12:50,1.045,1.679,1.146,2.008,1.389,0.555,1.011,0.932,���쐼,7.7,��
2017/04/16,13:00,1.048,1.681,1.144,2.013,1.389,0.555,1.010,0.932,��,8.6,��
2017/04/16,13:10,1.049,1.682,1.143,2.013,1.390,0.555,1.012,0.933,��,8.7,��
2017/04/16,13:20,1.049,1.684,1.147,2.018,1.389,0.555,1.011,0.933,���쐼,10.0,��
2017/04/16,13:30,1.050,1.682,1.145,2.018,1.391,0.556,1.011,0.932,��,6.4,��
2017/04/16,13:40,1.050,1.682,1.145,2.017,1.390,0.556,1.013,0.932,���k��,6.9,��
2017/04/16,13:50,1.047,1.686,1.146,2.016,1.391,0.557,1.012,0.932,���k��,8.9,��
2017/04/16,14:00,1.050,1.682,1.145,2.020,1.391,0.556,1.011,0.933,���쐼,7.3,��
2017/04/16,14:10,1.048,1.681,1.144,2.018,1.392,0.557,1.011,0.932,��,9.1,��
2017/04/16,14:20,1.051,1.680,1.145,2.018,1.390,0.556,1.011,0.933,��,12.5,��
2017/04/16,14:30,1.049,1.681,1.145,2.019,1.392,0.556,1.010,0.934,��,8.6,��
2017/04/16,14:40,1.051,1.684,1.145,2.019,1.394,0.554,1.011,0.933,��,10.0,��
2017/04/16,14:50,1.050,1.686,1.144,2.016,1.393,0.556,1.013,0.932,���쐼,9.6,��
2017/04/16,15:00,1.048,1.685,1.144,2.018,1.392,0.557,1.012,0.932,��,11.7,��
2017/04/16,15:10,1.047,1.685,1.146,2.018,1.394,0.554,1.011,0.933,��,7.3,��
2017/04/16,15:20,1.051,1.685,1.145,2.019,1.397,0.556,1.011,0.933,��,9.4,��
2017/04/16,15:30,1.050,1.684,1.146,2.016,1.395,0.553,1.010,0.933,��,11.4,��
2017/04/16,15:40,1.050,1.684,1.146,2.019,1.394,0.556,1.010,0.933,���쐼,11.0,��
2017/04/16,15:50,1.050,1.686,1.143,2.018,1.395,0.555,1.011,0.931,���쐼,7.3,��
2017/04/16,16:00,1.051,1.683,1.144,2.016,1.395,0.558,1.011,0.933,���쐼,7.0,��
2017/04/16,16:10,1.053,1.682,1.144,2.018,1.394,0.557,1.010,0.933,���쐼,8.9,��
2017/04/16,16:20,1.053,1.684,1.143,2.018,1.396,0.556,1.012,0.932,���쐼,7.5,��
2017/04/16,16:30,1.054,1.681,1.144,2.019,1.395,0.558,1.010,0.933,���쐼,8.9,��
2017/04/16,16:40,1.051,1.684,1.145,2.019,1.395,0.556,1.012,0.932,���쐼,8.4,��
2017/04/16,16:50,1.051,1.681,1.142,2.020,1.395,0.556,1.009,0.934,��,8.7,��
2017/04/16,17:00,1.052,1.684,1.147,2.021,1.392,0.556,1.012,0.932,���쐼,7.9,��
2017/04/16,17:10,1.052,1.689,1.147,2.021,1.395,0.555,1.011,0.934,��,10.2,��
2017/04/16,17:20,1.049,1.686,1.144,2.018,1.393,0.555,1.011,0.931,��,7.1,��
2017/04/16,17:30,1.050,1.686,1.144,2.018,1.393,0.555,1.011,0.934,��,6.0,��
2017/04/16,17:40,1.049,1.687,1.145,2.019,1.392,0.557,1.010,0.932,��,6.6,��
2017/04/16,17:50,1.048,1.687,1.144,2.020,1.393,0.555,1.011,0.932,��,5.3,��
2017/04/16,18:00,1.047,1.687,1.142,2.019,1.394,0.554,1.013,0.933,���k��,6.1,��
2017/04/16,18:10,1.049,1.687,1.143,2.021,1.394,0.555,1.012,0.934,��,6.8,��
2017/04/16,18:20,1.047,1.688,1.140,2.020,1.393,0.553,1.010,0.936,��,7.7,��
2017/04/16,18:30,1.048,1.687,1.142,2.020,1.394,0.554,1.011,0.935,��,7.4,��
2017/04/16,18:40,1.047,1.685,1.143,2.019,1.393,0.555,1.011,0.934,��,9.7,��
2017/04/16,18:50,1.048,1.688,1.144,2.017,1.393,0.554,1.010,0.932,��,8.5,��
2017/04/16,19:00,1.047,1.688,1.143,2.021,1.391,0.556,1.010,0.934,��,8.1,��
2017/04/16,19:10,1.047,1.686,1.143,2.021,1.394,0.555,1.010,0.935,��,6.6,��
2017/04/16,19:20,1.050,1.689,1.143,2.022,1.393,0.555,1.011,0.931,��,8.3,��
2017/04/16,19:30,1.049,1.685,1.147,2.024,1.395,0.556,1.012,0.934,��,7.7,��
2017/04/16,19:40,1.047,1.688,1.146,2.022,1.394,0.554,1.009,0.935,���쐼,9.2,��
2017/04/16,19:50,1.049,1.690,1.145,2.024,1.397,0.556,1.012,0.935,���쐼,8.9,��
2017/04/16,20:00,1.050,1.686,1.147,2.022,1.397,0.557,1.012,0.935,��,7.3,��
2017/04/16,20:10,1.050,1.686,1.147,2.022,1.394,0.556,1.012,0.935,��,8.3,��
2017/04/16,20:20,1.049,1.686,1.145,2.021,1.396,0.555,1.011,0.935,���쐼,8.1,��
2017/04/16,20:30,1.048,1.685,1.146,2.024,1.395,0.556,1.011,0.934,���쐼,4.4,��
2017/04/16,20:40,1.048,1.682,1.145,2.021,1.396,0.554,1.012,0.935,���쐼,4.6,��
2017/04/16,20:50,1.048,1.684,1.145,2.021,1.392,0.555,1.011,0.934,��,2.8,��
2017/04/16,21:00,1.050,1.683,1.146,2.022,1.393,0.555,1.012,0.932,�k��,1.2,��
2017/04/16,21:10,1.047,1.686,1.144,2.021,1.394,0.555,1.010,0.934,��쐼,2.3,��
2017/04/16,21:20,1.049,1.685,1.146,2.020,1.393,0.557,1.011,0.933,��,3.6,��
2017/04/16,21:30,1.047,1.687,1.144,2.023,1.394,0.557,1.010,0.934,���쐼,4.2,��
2017/04/16,21:40,1.046,1.687,1.145,2.021,1.395,0.554,1.011,0.935,���쐼,3.4,��
2017/04/16,21:50,1.047,1.687,1.144,2.023,1.395,0.557,1.009,0.934,���k��,2.9,��
2017/04/16,22:00,1.048,1.685,1.145,2.019,1.394,0.555,1.011,0.933,���k��,2.3,��
2017/04/16,22:10,1.048,1.683,1.145,2.022,1.392,0.556,1.010,0.933,���k��,3.9,��
2017/04/16,22:20,1.046,1.684,1.144,2.020,1.391,0.555,1.012,0.934,��,3.1,��
2017/04/16,22:30,1.046,1.685,1.144,2.021,1.395,0.555,1.009,0.933,��,5.4,��
2017/04/16,22:40,1.047,1.683,1.146,2.023,1.396,0.555,1.012,0.934,��,6.0,��
2017/04/16,22:50,1.046,1.684,1.144,2.023,1.396,0.554,1.010,0.933,��,5.9,��
2017/04/16,23:00,1.048,1.685,1.145,2.020,1.394,0.558,1.009,0.934,��,6.3,��
2017/04/16,23:10,1.046,1.685,1.144,2.023,1.393,0.556,1.010,0.935,��,4.9,��
2017/04/16,23:20,1.046,1.684,1.143,2.024,1.394,0.556,1.012,0.933,��,6.7,��
2017/04/16,23:30,1.048,1.684,1.146,2.019,1.395,0.556,1.010,0.935,��,5.6,��
2017/04/16,23:40,1.045,1.684,1.145,2.023,1.397,0.554,1.008,0.933,��,5.8,��
2017/04/16,23:50,1.047,1.684,1.145,2.023,1.395,0.554,1.012,0.931,���k��,3.4,��
